#timestamp,LO_Frequency,Hit,StdDev 
1546538415.6,286046995.4,N
1546538435.5,286046995.8,N
1546538455.3,286046995.9,N
1546538475.1,286046993.3,Y
1546538495.9,286046995.6,P
1546538515.7,286046995.0,P
1546538535.6,286046995.0,P
1546538555.4,286046995.0,Y
1546538575.2,286047001.0,P
1546538595.1,286047001.0,N
1546538596.0,286047001.0,N
1546538615.8,286047001.1,N
1546538635.7,286046999.9,N
1546538655.5,286046999.7,N
1546538675.3,286046999.8,N
1546538695.2,286046999.7,N
1546538715.0,286047001.5,N
1546538715.9,286047001.5,N
1546538735.4,286046999.8,N
1546538755.2,286046998.6,N
1546538775.1,286046998.2,N
1546538776.0,286046998.2,N
1546538795.8,286047000.6,N
1546538815.7,286046999.8,N
1546538835.5,286046998.2,N
1546538855.3,286047002.6,N
1546538875.2,286047000.4,N
1546538895.0,286047001.0,N
1546538895.9,286047001.0,N
1546538915.8,286046998.1,N
1546538935.6,286046999.9,N
1546538955.4,286047000.9,N
1546538975.3,286047000.5,N
1546538995.1,286047001.0,N
1546539015.9,286046998.5,N
1546539035.7,286046998.9,N
1546539055.5,286047001.1,N
1546539075.4,286046999.6,N
1546539095.2,286046997.4,N
1546539115.0,286046997.5,N
1546539115.9,286046997.5,N
1546539135.8,286046999.4,N
1546539155.6,286046998.2,N
1546539175.5,286046998.9,N
1546539195.3,286046998.7,N
1546539215.1,286046998.3,N
1546539235.9,286046998.3,N
1546539255.7,286046997.0,N
1546539275.5,286046997.7,N
1546539295.4,286046999.6,N
1546539315.2,286046996.8,N
1546539335.1,286046997.6,N
1546539336.0,286046997.6,N
1546539355.8,286046997.9,N
1546539375.6,286046997.3,N
1546539395.5,286046996.8,N
1546539415.3,286046997.1,N
1546539435.1,286046996.5,N
1546539455.9,286046999.6,N
1546539475.7,286046997.3,N
1546539495.6,286046995.0,Y
1546539515.4,286046999.1,P
1546539535.2,286046999.1,N
1546539555.1,286046999.0,P
1546539556.0,286046999.0,Y
1546539575.8,286047000.2,P
1546539595.7,286047000.6,N
1546539615.5,286046999.5,N
1546539635.3,286046999.2,N
1546539655.2,286047001.1,N
1546539675.0,286046998.8,N
1546539675.9,286046998.8,N
1546539695.8,286046998.5,N
1546539715.6,286047001.1,N
1546539735.4,286047001.1,N
1546539755.3,286046999.7,N
1546539775.1,286047000.7,N
1546539795.8,286047000.9,N
1546539815.7,286047000.5,N
1546539835.5,286046998.6,N
1546539855.4,286046999.1,N
1546539875.2,286046998.9,N
1546539895.0,286046999.3,N
1546539895.9,286046999.3,N
1546539915.8,286046998.5,N
1546539935.6,286046999.5,N
1546539955.5,286046997.1,Y
1546539975.3,286046999.5,P
1546539995.1,286046999.2,P
1546540015.9,286046996.5,P
1546540035.7,286046995.0,Y
1546540055.6,286046998.4,P
1546540075.4,286047000.2,N
1546540095.2,286046999.7,N
1546540115.1,286047002.7,Y
1546540116.0,286047002.7,P
1546540135.8,286047000.2,N
1546540155.7,286046998.3,N
1546540175.5,286046998.2,N
1546540195.3,286047000.5,N
1546540215.2,286047002.2,N
1546540235.0,286047004.3,N
1546540235.9,286047004.3,N
1546540255.8,286047004.3,N
1546540275.6,286047002.3,N
1546540295.4,286047000.5,N
1546540315.3,286047001.2,N
1546540335.1,286046998.2,N
1546540355.8,286047000.8,N
1546540375.7,286047000.4,N
1546540395.5,286047000.4,N
1546540415.4,286047002.6,N
1546540435.2,286047002.6,N
1546540455.0,286047001.9,N
1546540455.9,286047001.9,N
1546540475.8,286047001.9,N
1546540495.6,286046999.9,N
1546540515.4,286047001.9,N
1546540535.3,286047002.4,N
1546540555.1,286047002.5,N
1546540575.9,286047002.8,N
1546540595.7,286046999.9,N
1546540615.5,286047000.4,N
1546540635.4,286047000.4,N
1546540655.2,286046999.9,N
1546540675.0,286046999.8,N
1546540676.0,286046999.8,N
1546540695.8,286046998.6,N
1546540715.6,286046999.5,N
1546540735.9,286046999.1,N
1546540755.7,286047000.4,N
1546540775.6,286047000.2,N
1546540795.4,286047000.6,N
1546540815.2,286046998.6,N
1546540835.1,286047001.0,N
1546540836.0,286047001.0,N
1546540855.8,286047002.7,N
1546540875.7,286047002.3,N
1546540895.5,286047000.5,N
1546540915.3,286047000.5,N
1546540935.2,286047000.6,N
1546540955.0,286047000.6,N
1546540955.9,286047000.6,N
1546540975.7,286047000.3,N
1546540995.6,286047000.6,N
1546541015.4,286047000.9,N
1546541035.3,286046999.7,N
1546541055.1,286047002.1,N
1546541056.0,286047002.1,N
1546541075.8,286047002.6,N
1546541095.7,286047000.8,N
1546541115.5,286046998.1,N
1546541135.3,286047000.4,N
1546541155.2,286047001.0,N
1546541175.0,286047001.2,N
1546541175.9,286047001.2,N
1546541195.8,286047000.7,N
1546541215.6,286047001.0,N
1546541235.4,286046998.8,N
1546541255.3,286046998.9,N
1546541275.1,286046999.1,N
1546541295.9,286046999.1,N
1546541315.7,286046999.4,N
1546541335.5,286047000.6,N
1546541355.4,286047002.7,N
1546541375.2,286047000.3,N
1546541395.0,286046998.1,N
1546541395.9,286046998.1,N
1546541415.8,286046998.8,N
1546541435.6,286046998.4,N
1546541455.5,286047000.6,N
1546541475.3,286046998.5,N
1546541495.1,286046998.6,N
1546541515.9,286046998.3,N
1546541535.7,286047001.2,N
1546541555.5,286047000.3,N
1546541575.4,286047000.8,N
1546541595.2,286047000.3,N
1546541615.1,286046999.8,N
1546541616.0,286046999.8,N
1546541635.8,286047000.3,N
1546541655.6,286047000.9,N
1546541675.5,286047000.5,N
1546541695.3,286047001.1,N
1546541715.1,286047000.6,N
1546541735.9,286047001.1,N
1546541755.7,286046998.2,N
1546541775.6,286046998.9,N
1546541795.4,286046998.1,N
1546541815.2,286047000.5,N
1546541835.1,286046998.3,N
1546541836.0,286046998.3,N
1546541855.8,286047000.0,N
1546541875.7,286046998.2,N
1546541895.5,286046999.5,N
1546541915.3,286046998.4,N
1546541935.2,286046998.1,N
1546541955.0,286047000.4,N
1546541955.9,286047000.4,N
1546541975.7,286047000.5,N
1546541995.6,286046998.8,N
